TimeEDT,TemperatureF,Dew PointF,Humidity,Sea Level PressureIn,VisibilityMPH,Wind Direction,Wind SpeedMPH,Gust SpeedMPH,PrecipitationIn,Events,Conditions,WindDirDegrees,DateUTC
12:54 AM,64.0,53.1,67,30.13,10.0,SE,6.9,-,N/A,,Overcast,140,2013-04-29 04:54:00
1:54 AM,63.0,53.1,70,30.12,10.0,SSE,5.8,-,N/A,,Overcast,150,2013-04-29 05:54:00
2:54 AM,63.0,53.1,70,30.09,10.0,SE,6.9,-,N/A,,Overcast,130,2013-04-29 06:54:00
3:54 AM,64.0,53.1,67,30.08,10.0,SSE,4.6,-,N/A,,Overcast,160,2013-04-29 07:54:00
4:54 AM,64.9,53.1,65,30.07,10.0,South,5.8,-,N/A,,Overcast,180,2013-04-29 08:54:00
5:54 AM,64.9,55.0,70,30.08,10.0,SSW,3.5,-,0.00,,Overcast,200,2013-04-29 09:54:00
6:54 AM,63.0,57.0,81,30.08,10.0,SSE,3.5,-,0.00,Rain,Light Rain,150,2013-04-29 10:54:00
7:54 AM,64.0,57.9,80,30.08,9.0,South,3.5,-,0.01,Rain,Light Rain,190,2013-04-29 11:54:00
8:54 AM,64.0,59.0,84,30.10,5.0,SSW,5.8,-,0.03,Rain,Light Rain,210,2013-04-29 12:54:00
9:54 AM,63.0,59.0,87,30.09,4.0,South,5.8,-,0.09,Rain,Rain,180,2013-04-29 13:54:00
10:11 AM,62.6,60.8,94,30.11,2.5,SSW,5.8,-,0.05,Rain,Rain,210,2013-04-29 14:11:00
10:22 AM,62.6,59.0,88,30.11,3.0,SSW,5.8,-,0.08,Rain,Rain,210,2013-04-29 14:22:00
10:54 AM,62.1,59.0,90,30.11,3.0,South,5.8,-,0.15,Rain,Rain,190,2013-04-29 14:54:00
11:54 AM,62.1,59.0,90,30.10,6.0,South,6.9,-,0.06,Rain,Light Rain,170,2013-04-29 15:54:00
12:54 PM,63.0,59.0,87,30.09,8.0,SSW,4.6,-,0.03,Rain,Light Rain,210,2013-04-29 16:54:00
1:01 PM,62.6,60.8,94,30.09,5.0,SSW,3.5,-,0.01,Rain,Light Rain,200,2013-04-29 17:01:00
1:54 PM,64.9,61.0,87,30.04,10.0,SE,10.4,-,0.02,,Mostly Cloudy,130,2013-04-29 17:54:00
2:54 PM,66.9,60.1,79,30.02,10.0,SSE,10.4,18.4,N/A,,Scattered Clouds,160,2013-04-29 18:54:00
3:54 PM,-9999,-9999,N/A,30.00,10.0,South,13.8,19.6,N/A,,Mostly Cloudy,170,2013-04-29 19:54:00
4:17 PM,68.0,60.8,78,30.01,10.0,SSW,11.5,19.6,N/A,,Mostly Cloudy,200,2013-04-29 20:17:00
4:54 PM,66.9,61.0,81,30.00,10.0,South,9.2,-,N/A,,Overcast,180,2013-04-29 20:54:00
5:44 PM,66.2,60.8,83,30.01,10.0,South,4.6,-,N/A,,Overcast,190,2013-04-29 21:44:00
5:54 PM,66.0,61.0,84,30.00,10.0,SSW,8.1,-,N/A,,Overcast,210,2013-04-29 21:54:00
6:54 PM,64.9,61.0,87,30.00,9.0,WSW,4.6,-,N/A,,Overcast,250,2013-04-29 22:54:00
7:02 PM,64.4,60.8,88,30.01,8.0,SW,3.5,-,N/A,,Overcast,230,2013-04-29 23:02:00
7:54 PM,64.9,62.1,90,30.01,7.0,WSW,4.6,-,0.00,Rain,Light Rain,240,2013-04-29 23:54:00
8:54 PM,64.0,62.1,93,30.01,6.0,SSW,3.5,-,0.01,Rain,Rain,200,2013-04-30 00:54:00
9:54 PM,63.0,61.0,93,30.02,8.0,Calm,Calm,-,0.00,,Overcast,0,2013-04-30 01:54:00
10:54 PM,63.0,61.0,93,30.01,10.0,Calm,Calm,-,0.01,,Mostly Cloudy,0,2013-04-30 02:54:00
11:54 PM,63.0,60.1,90,30.01,7.0,SSE,4.6,-,N/A,,Mostly Cloudy,160,2013-04-30 03:54:00
11:56 PM,62.6,60.8,94,30.02,7.0,South,4.6,-,N/A,,Overcast,170,2013-04-30 03:56:00